Terug naar catalogus

NAVSTAR 78

USA 293

ActiefNavigatieHEO
NORAD 44506·PAYLOAD·🇺🇸 United States

Gelanceerd Aug 22, 2019 vanaf Cape Canaveral Space Force Station

Loading…

Volgende Passages (komende 24 uur)

TLE

VersSource: CelesTrak SupGP

Epoch: Sep 16, 2026, 16:44 UTC

1 44506C 19056A   26259.69756944  .00000000  00000+0  00000+0 0  2591
2 44506  55.5863 327.5027 0065928 200.0794  24.4728  2.00571821    15

Volg NAVSTAR 78 in realtime met AllMySat

Download on the App Store